Weather History for KBFM - April, 2013

Change the Weather History Date:

Thursday, April 25, 2013

  Actual Average Record
Temperature  
Mean Temperature 64 °F -  
Max Temperature 75 °F 76 °F 86 °F (1999)
Min Temperature 55 °F 57 °F 48 °F (1998)
Degree Days  
Heating Degree Days 1    
Growing Degree Days 14 (Base 50)    
Moisture  
Dew Point 54 °F    
Average Humidity 74    
Maximum Humidity 100    
Minimum Humidity 42    
Precipitation  
Precipitation 0.01 in - - ()
Sea Level Pressure  
Sea Level Pressure 30.24 in    
Wind  
Wind Speed 10 mph (North)    
Max Wind Speed 13 mph    
Max Gust Speed -    
Visibility 10 miles    
Events      
Averages and records for this station are not official NWS values.
T = Trace of Precipitation, MM = Missing Value Source: NWS Daily Summary

Daily Weather History Graph

Daily Weather History Graph

Search for Another Location

Airport or City:

Trip Planner

Search our weather history database for the weather conditions in past years. The results will help you decide how hot, cold, wet, or windy it might be!

Date:

Astronomy

Apr. 25, 2013 Rise Set
Actual Time 6:13 AM CDT 7:26 PM CDT
Civil Twilight 5:48 AM CDT 7:52 PM CDT
Nautical Twilight 5:18 AM CDT 8:22 PM CDT
Astronomical Twilight 4:47 AM CDT 8:53 PM CDT
Moon 7:37 PM CDT (4/25) 5:56 AM CDT (4/25)
Length of Visible Light 14h 03m
Length of Day
13h 12m
Full, 100% of the Moon is Illuminated
Apr 25
Full
Apr 25
Full
May 2
Last Quarter
May 9
New
May 17
First Quarter

Hourly Weather History & Observations

Time (CDT) Temp. Dew Point Humidity Pressure Visibility Wind Dir Wind Speed Gust Speed Precip Events Conditions
12:02 AM 66.2 °F 64.4 °F 94% 30.16 in 9.0 mi North 8.1 mph - N/A   Overcast
12:18 AM 62.6 °F 62.6 °F 100% 30.16 in 7.0 mi North 11.5 mph - N/A   Overcast
12:53 AM 60.1 °F 59.0 °F 96% 30.17 in 9.0 mi North 12.7 mph - N/A   Overcast
1:53 AM 57.9 °F 57.0 °F 97% 30.18 in 10.0 mi North 9.2 mph - N/A   Overcast
2:36 AM 57.2 °F 55.4 °F 94% 30.18 in 10.0 mi NNW 12.7 mph - N/A   Overcast
2:53 AM 57.0 °F 55.9 °F 96% 30.19 in 10.0 mi North 10.4 mph - N/A   Overcast
3:12 AM 57.2 °F 55.4 °F 94% 30.18 in 10.0 mi North 10.4 mph - N/A   Overcast
3:53 AM 57.0 °F 55.0 °F 93% 30.19 in 4.0 mi NNW 12.7 mph - 0.01 in   Overcast
4:53 AM 55.9 °F 55.0 °F 97% 30.21 in 10.0 mi North 10.4 mph - 0.00 in   Overcast
5:53 AM 55.9 °F 54.0 °F 93% 30.21 in 8.0 mi North 12.7 mph - N/A   Overcast
6:53 AM 57.0 °F 54.0 °F 89% 30.24 in 10.0 mi North 11.5 mph - N/A   Overcast
7:53 AM 57.0 °F 54.0 °F 89% 30.27 in 10.0 mi NNW 12.7 mph - N/A   Overcast
8:50 AM 57.2 °F 53.6 °F 88% 30.28 in 10.0 mi North 9.2 mph - N/A   Overcast
8:53 AM 57.0 °F 53.1 °F 87% 30.29 in 10.0 mi North 8.1 mph - N/A   Overcast
9:53 AM 60.1 °F 54.0 °F 80% 30.30 in 10.0 mi North 9.2 mph - N/A   Overcast
10:32 AM 62.6 °F 55.4 °F 77% 30.29 in 10.0 mi North 10.4 mph - N/A   Scattered Clouds
10:53 AM 64.0 °F 55.9 °F 75% 30.29 in 10.0 mi North 8.1 mph - N/A   Partly Cloudy
11:53 AM 66.9 °F 57.0 °F 70% 30.30 in 10.0 mi NNE 11.5 mph - N/A   Clear
12:53 PM 70.0 °F 57.9 °F 65% 30.29 in 10.0 mi NNE 10.4 mph - N/A   Partly Cloudy
1:53 PM 73.0 °F 57.0 °F 57% 30.28 in 10.0 mi NNE 10.4 mph - N/A   Partly Cloudy
2:53 PM 73.0 °F 57.0 °F 57% 30.27 in 10.0 mi NE 11.5 mph - N/A   Partly Cloudy
3:53 PM 73.9 °F 57.9 °F 57% 30.25 in 10.0 mi NE 12.7 mph - N/A   Partly Cloudy
4:53 PM 73.9 °F 55.9 °F 53% 30.25 in 10.0 mi NNE 11.5 mph - N/A   Partly Cloudy
5:53 PM 73.9 °F 55.0 °F 52% 30.25 in 10.0 mi North 9.2 mph - N/A   Clear
6:53 PM 70.0 °F 46.0 °F 42% 30.25 in 10.0 mi North 6.9 mph - N/A   Clear
7:53 PM 69.1 °F 45.0 °F 42% 30.25 in 10.0 mi North 8.1 mph - N/A   Clear
8:53 PM 66.9 °F 45.0 °F 45% 30.26 in 10.0 mi North 8.1 mph - N/A   Clear
9:53 PM 66.0 °F 46.0 °F 48% 30.28 in 10.0 mi NNE 10.4 mph - N/A   Clear
10:53 PM 64.0 °F 46.0 °F 52% 30.29 in 10.0 mi North 8.1 mph - N/A   Clear
11:53 PM 63.0 °F 46.0 °F 54% 30.29 in 10.0 mi North 6.9 mph - N/A   Clear